Regional Weather Roundup
Issued by NWS Sterling, VA

Home | Current Version | Previous Version | Text Only | Print | Product List | Glossary On
Versions: 1 2 3 4 5 6 7 8 9 10 11 12 13 14 15 16 17 18 19 20 21 22 23 24 25 26 27
000
ASUS41 KLWX 220811
RWRLWX

REGIONAL WEATHER ROUNDUP
NATIONAL WEATHER SERVICE BALTIMORE MD/WASHINGTON DC
300 AM EST MON JAN 22 2018

Note: "FAIR" indicates few or no clouds below 12,000 feet
with no significant weather and/or obstructions to visibility.
 TC=TEMPERATURE CELSIUS

 * =Non NWS site. Station does not report precipitation (e.g. rain,
    snow, etc.), thunder, or fog.

DCZ001-MDZ009-015-VAZ040>042-051-053>054-220900-
WASHINGTON METRO

CITY           SKY/WX    TMP DP  RH WIND       PRES   REMARKS
WASHINGTON NAT CLOUDY    49  39  68 S7        30.13F
DULLES         MOCLDY    50  43  77 S5        30.12S
ANDREWS AFB    CLOUDY    53  40  60 S12       30.12S
FT BELVOIR     CLOUDY    44  37  76 CALM        N/A
COLLEGE PARK*  CLOUDY    51  40  65 CALM      30.12S
LEESBURG*      CLOUDY    46  45  93 S6        30.12S
MANASSAS*      CLOUDY    44  39  82 S3        30.13S
GAITHERSBURG*  MOCLDY    48  42  80 SE5       30.12S

$$

MDZ006>007-011-014-220900-
BALTIMORE METRO

CITY           SKY/WX    TMP DP  RH WIND       PRES   REMARKS
BWI AIRPORT    CLOUDY    43  39  86 NE3       30.12S
MD SCIENCE CTR   N/A     44  38  79 MISG      30.13S
MARTIN STATE   CLOUDY    41  37  87 CALM      30.14S
ANNAPOLIS      CLOUDY    43  38  82 SE5       30.13S
FORT MEADE*    CLOUDY    39  36  87 CALM      30.15S

$$

MDZ012-015-019>023-220900-
MARYLAND EASTERN SHORE

CITY           SKY/WX    TMP DP  RH WIND       PRES   REMARKS
OCEAN CITY     FAIR      48  41  76 SW8       30.17S
SALISBURY      FAIR      47  41  80 SW5       30.17R
BAY BRIDGE AP* CLOUDY    46  37  71 SE5       30.13S
CAMBRIDGE*     CLOUDY    43  39  87 S7        30.16S
EASTON*        FAIR      50  38  63 S6        30.18S

$$

MDZ017>025-220900-
SOUTHERN MARYLAND

CITY           SKY/WX    TMP DP  RH WIND       PRES   REMARKS
PATUXENT RIVER NOT AVBL
ST INIGOES     NOT AVBL
LEONARDTOWN*   CLOUDY    52  36  54 SW7       30.17S

$$

MDZ003>005-220900-
NORTH CENTRAL MARYLAND

CITY           SKY/WX    TMP DP  RH WIND       PRES   REMARKS
FREDERICK*     CLOUDY    43  34  70 CALM      30.14S
HAGERSTOWN APT CLOUDY    52  43  71 SE6       30.09F
WESTMINSTER*   CLOUDY    52  43  71 SW3       30.11S

$$

MDZ501>502-220900-
WESTERN MARYLAND

CITY           SKY/WX    TMP DP  RH WIND       PRES   REMARKS
OAKLAND*         N/A     46  43  87 SW7       30.09R
CUMBERLAND*    MOCLDY    45  41  87 N3        30.13S

$$

VAZ025>031-220900-
SHENANDOAH VALLEY

CITY           SKY/WX    TMP DP  RH WIND       PRES   REMARKS
WINCHESTER*    CLOUDY    52  43  71 SW9       30.11F
FRONT ROYAL*   CLOUDY    54  45  71 SE6       30.10S
LURAY*         MOCLDY    46  43  87 CALM      30.11F
NEW MARKET*    CLOUDY    45  41  88 SW3       30.12S
STAUNTON*      CLOUDY    42  39  91 CALM      30.14F
WAYNESBORO*    CLOUDY    47  43  86 SW5       30.13F

$$

WVZ021-048>050-054>055-220900-
EASTERN WEST VIRGINIA PANHANDLE

CITY           SKY/WX    TMP DP  RH WIND       PRES   REMARKS
MARTINSBURG    CLOUDY    49  43  80 CALM      30.08F
PETERSBURG*    MOCLDY    43  40  88 CALM      30.10F

$$

VAZ036>039-050-220900-
CENTRAL FOOTHILLS

CITY           SKY/WX    TMP DP  RH WIND       PRES   REMARKS
CHARLOTTESVILL CLOUDY    55  43  63 SW7       30.12F
CULPEPER*      CLOUDY    47  40  79 S3        30.14S
ORANGE*        CLOUDY    50  41  71 CALM      30.14S
GORDONSVILLE*  CLOUDY    48  44  85 CALM      30.13S
WARRENTON*     CLOUDY    52  40  64 S5        30.12S

$$

VAZ055>057-220900-
NORTH AND CENTRAL PIEDMONT

CITY           SKY/WX    TMP DP  RH WIND       PRES   REMARKS
FREDERICKSBRG* CLOUDY    56  45  66 SW10      30.14S
STAFFORD*      MOCLDY    51  44  77 S3        30.17F

$$

NCZ024-NYZ072-PAZ021-071-VAZ022-071-220900-
OTHER REGIONAL OBSERVATIONS

CITY           SKY/WX    TMP DP  RH WIND       PRES   REMARKS
NEW YORK CITY  CLOUDY    43  37  79 E3        30.16F
PHILADELPHIA   CLOUDY    44  35  70 CALM      30.14F
PITTSBURGH     CLOUDY    45  45 100 CALM      30.03F
ROANOKE        FAIR      44  39  82 CALM      30.16F
RICHMOND       CLOUDY    52  39  61 S5        30.17S
RALEIGH        FAIR      40  38  93 CALM      30.21R

$$

ANZ530>537-220900-
MARINE OBSERVATIONS

STATION/POSITION TIME  TEMP    WIND        PRES
                       AIR SEA DIR/SP/G
                 (UTC) (F)     (DEG/KT/KT) (MB)
THOMAS PT LIGHT  0800   45 33  170/ 14/ 15   N/A
BALT KEY BRIDGE  0748   41      90/  2/  3 1020.2S
COVE POINT       0748   41     170/  6/  8 1021.5S
LEWISETTA        0748   52 36  220/ 11/ 13 1021.1F
SOLOMONS ISLAND  0748   48 35  210/  7/  9 1020.6F
PINEY POINT      0748          210/  4/  6   N/A

$$





USA.gov is the U.S. government's official web portal to all federal, state and local government web resources and services.